EW4711 Weather Reports


Display with metric or nautical units.
time (UTC)temp
F
wind
direction
speed
MPH
gust
MPH
rain 1hr
in
rain 24hr
in
rain mn
in
humidity
%
barometer
mb
20260906003102 68 100 0.0 0.0 0.00 0.01 0.01 81 1013.5
20260906002602 69 100 0.0 3.0 0.00 0.01 0.01 81 1013.6
20260906002103 69 110 0.0 3.0 0.00 0.01 0.01 81 1013.5
20260906001603 69 95 1.0 3.0 0.00 0.01 0.01 81 1013.5
20260906001103 69 100 1.0 3.0 0.00 0.01 0.01 80 1013.5
20260906000603 69 67 0.0 2.0 0.00 0.01 0.01 80 1013.4
20260906000103 69 64 1.0 2.0 0.00 0.01 0.01 79 1013.4
20260905235603 69 79 1.0 2.0 0.00 0.01 0.01 78 1013.4
20260905234102 70 106 0.0 0.0 0.00 0.01 0.01 77 1013.5
20260905233603 70 106 0.0 0.0 0.00 0.01 0.01 75 1013.5
20260905233103 71 110 0.0 0.0 0.00 0.01 0.01 74 1013.5
20260905232602 71 110 0.0 1.0 0.00 0.01 0.01 73 1013.5
20260905232102 71 128 0.0 1.0 0.00 0.01 0.01 72 1013.4
20260905231603 71 131 0.0 1.0 0.00 0.01 0.01 72 1013.5
20260905230602 72 73 1.0 3.0 0.00 0.01 0.01 70 1013.6
20260905230103 72 87 1.0 3.0 0.00 0.01 0.01 70 1013.6
20260905225603 72 99 1.0 3.0 0.00 0.01 0.01 69 1013.6
20260905225103 72 68 1.0 2.0 0.00 0.01 0.01 68 1013.5
20260905224603 72 74 1.0 3.0 0.00 0.01 0.01 67 1013.5
20260905224104 72 75 1.0 3.0 0.00 0.01 0.01 68 1013.5
20260905223103 73 40 1.0 3.0 0.00 0.01 0.01 67 1013.5
20260905222603 73 53 2.0 3.0 0.00 0.01 0.01 66 1013.5
20260905221603 73 91 1.0 3.0 0.00 0.01 0.01 66 1013.6
20260905221103 74 64 2.0 6.0 0.00 0.01 0.01 66 1013.5
20260905220603 74 93 2.0 6.0 0.00 0.01 0.01 64 1013.5
20260905215603 75 3 0.0 2.0 0.00 0.01 0.01 64 1013.4
20260905215103 75 69 1.0 5.0 0.00 0.01 0.01 62 1013.3
20260905214602 75 29 2.0 3.0 0.00 0.01 0.01 63 1013.3
20260905213603 76 95 2.0 3.0 0.00 0.01 0.01 63 1013.3
20260905213102 76 39 1.0 6.0 0.00 0.01 0.01 63 1013.2
20260905212103 76 78 3.0 7.0 0.00 0.01 0.01 62 1013.2
20260905211603 76 95 2.0 3.0 0.00 0.01 0.01 63 1013.1
20260905211102 75 64 3.0 7.0 0.00 0.01 0.01 65 1013.1
20260905210603 75 122 2.0 5.0 0.00 0.01 0.01 64 1013.1
20260905210103 75 151 3.0 8.0 0.00 0.01 0.01 65 1013.1
20260905205602 75 126 2.0 5.0 0.00 0.01 0.01 65 1013.1
20260905205103 75 116 3.0 7.0 0.00 0.01 0.01 65 1013.1
20260905204103 76 26 3.0 10.0 0.00 0.01 0.01 67 1013.1
20260905203603 75 112 1.0 6.0 0.00 0.01 0.01 64 1013.1
20260905203102 76 69 2.0 6.0 0.00 0.01 0.01 67 1013.1
20260905202603 75 9 2.0 6.0 0.00 0.01 0.01 68 1013.0
20260905202103 75 63 1.0 3.0 0.00 0.01 0.01 69 1013.1
20260905201603 75 10 3.0 7.0 0.00 0.01 0.01 67 1013.2
20260905201103 75 354 3.0 7.0 0.00 0.01 0.01 67 1013.2
20260905200603 76 15 1.0 3.0 0.00 0.01 0.01 66 1013.3
20260905200105 75 348 2.0 7.0 0.00 0.01 0.01 67 1013.3
20260905195603 75 12 2.0 7.0 0.00 0.01 0.01 67 1013.2
20260905195104 75 26 3.0 6.0 0.00 0.01 0.01 67 1013.2
20260905194603 76 24 3.0 10.0 0.00 0.01 0.01 69 1013.3
20260905194103 76 7 2.0 5.0 0.00 0.01 0.01 67 1013.3
20260905193603 75 57 2.0 6.0 0.00 0.01 0.01 64 1013.3
20260905193103 75 90 3.0 9.0 0.00 0.01 0.01 65 1013.3
20260905192603 75 103 5.0 10.0 0.00 0.01 0.01 68 1013.3
20260905192102 74 325 5.0 9.0 0.00 0.01 0.01 70 1013.3
20260905191603 74 43 2.0 7.0 0.00 0.01 0.01 67 1013.4
20260905191103 75 0 2.0 7.0 0.00 0.01 0.01 69 1013.4
20260905185603 75 93 4.0 7.0 0.00 0.01 0.01 64 1013.6
20260905185103 75 101 2.0 5.0 0.00 0.01 0.01 67 1013.5
20260905184603 76 55 2.0 5.0 0.00 0.01 0.01 68 1013.5
20260905184103 75 25 1.0 7.0 0.00 0.01 0.01 70 1013.5
20260905183603 75 52 1.0 3.0 0.00 0.01 0.01 69 1013.5
20260905183103 75 108 2.0 5.0 0.00 0.01 0.01 67 1013.4
20260905182602 75 95 5.0 10.0 0.00 0.01 0.01 69 1013.5
20260905182102 75 66 2.0 6.0 0.00 0.01 0.01 69 1013.4
20260905181602 74 81 2.0 7.0 0.00 0.01 0.01 70 1013.4
20260905180603 75 55 2.0 6.0 0.00 0.01 0.01 69 1013.3
20260905175603 74 127 4.0 9.0 0.00 0.01 0.01 68 1013.3
20260905175103 74 66 1.0 7.0 0.00 0.01 0.01 70 1013.2
20260905174103 74 67 2.0 8.0 0.00 0.01 0.01 71 1013.2
20260905173603 74 18 3.0 5.0 0.00 0.01 0.01 72 1013.3
20260905173104 73 32 3.0 6.0 0.00 0.01 0.01 72 1013.4
20260905172603 74 24 2.0 7.0 0.00 0.01 0.01 68 1013.4
20260905172102 75 67 3.0 9.0 0.00 0.01 0.01 73 1013.3
20260905171603 73 90 4.0 6.0 0.00 0.01 0.01 71 1013.3
20260905171103 73 103 4.0 8.0 0.00 0.01 0.01 72 1013.4
20260905165103 72 65 2.0 3.0 0.00 0.01 0.01 73 1013.4
20260905164603 74 16 2.0 6.0 0.00 0.01 0.01 73 1013.3
20260905164103 74 321 1.0 3.0 0.00 0.01 0.01 76 1013.3
20260905163103 73 13 2.0 7.0 0.00 0.01 0.01 71 1013.4
20260905162603 74 44 3.0 7.0 0.00 0.01 0.01 72 1013.4
20260905162103 74 83 5.0 10.0 0.00 0.01 0.01 72 1013.4
20260905161103 74 96 3.0 8.0 0.00 0.01 0.01 72 1013.4
20260905160603 74 341 2.0 7.0 0.00 0.01 0.01 72 1013.4
20260905160104 73 48 3.0 12.0 0.00 0.01 0.01 72 1013.4
20260905155602 73 0 5.0 8.0 0.00 0.01 0.01 73 1013.4
20260905155103 73 12 3.0 8.0 0.00 0.01 0.01 71 1013.4
20260905154603 73 16 2.0 7.0 0.00 0.01 0.01 75 1013.4
20260905154103 73 24 2.0 5.0 0.00 0.01 0.01 70 1013.3
20260905153603 74 85 3.0 12.0 0.00 0.01 0.01 70 1013.4
20260905153103 74 93 5.0 9.0 0.00 0.01 0.01 73 1013.4
20260905152603 73 76 5.0 12.0 0.00 0.01 0.01 71 1013.5
20260905152103 74 74 2.0 6.0 0.00 0.01 0.01 75 1013.6
20260905150603 72 69 3.0 8.0 0.00 0.01 0.01 75 1013.6
20260905145603 72 78 5.0 10.0 0.00 0.01 0.01 76 1013.6
20260905145103 72 43 2.0 3.0 0.00 0.01 0.01 77 1013.6
20260905144603 72 329 2.0 6.0 0.00 0.01 0.01 76 1013.5
20260905144103 72 27 2.0 6.0 0.00 0.01 0.01 77 1013.5
20260905143604 72 0 3.0 6.0 0.00 0.01 0.01 78 1013.4
20260905143103 71 351 1.0 3.0 0.00 0.01 0.01 83 1013.5
20260905142603 71 42 2.0 5.0 0.00 0.01 0.01 79 1013.6
20260905142103 71 53 2.0 5.0 0.00 0.01 0.01 80 1013.5
20260905141605 71 6 2.0 5.0 0.00 0.01 0.01 80 1013.5
20260905141103 71 48 2.0 8.0 0.00 0.01 0.01 79 1013.6
20260905140603 72 42 2.0 5.0 0.00 0.01 0.01 80 1013.5
20260905140103 71 42 1.0 3.0 0.00 0.01 0.01 82 1013.6
20260905135603 72 100 1.0 3.0 0.00 0.01 0.01 82 1013.6
20260905135103 72 43 2.0 3.0 0.00 0.01 0.01 80 1013.5
20260905134603 72 33 1.0 3.0 0.00 0.01 0.01 83 1013.6
20260905134103 71 81 3.0 5.0 0.00 0.01 0.01 82 1013.6
20260905133603 71 51 0.0 5.0 0.00 0.01 0.01 84 1013.6
20260905133103 70 78 3.0 7.0 0.00 0.01 0.01 84 1013.6
20260905132103 69 84 4.0 7.0 0.00 0.01 0.01 85 1013.6
20260905131604 69 108 3.0 5.0 0.00 0.01 0.01 86 1013.7
20260905131103 69 76 2.0 5.0 0.00 0.01 0.01 86 1013.6
20260905130603 69 39 1.0 3.0 0.00 0.01 0.01 86 1013.7
20260905125603 68 95 4.0 8.0 0.00 0.01 0.01 88 1013.7
20260905125103 68 73 1.0 3.0 0.00 0.01 0.01 92 1013.8
20260905124603 68 115 2.0 3.0 0.00 0.01 0.01 94 1013.8
20260905124103 66 60 2.0 3.0 0.00 0.01 0.01 96 1013.8
20260905123603 65 18 0.0 1.0 0.00 0.01 0.01 98 1013.8
20260905122604 64 22 1.0 3.0 0.01 0.01 0.01 98 1014.0
20260905122103 64 329 1.0 3.0 0.01 0.01 0.01 98 1014.0
20260905121603 63 28 0.0 2.0 0.01 0.01 0.01 99 1013.9
20260905121103 63 356 1.0 2.0 0.01 0.01 0.01 99 1013.9
20260905120603 62 55 1.0 2.0 0.01 0.01 0.01 99 1013.9
20260905120103 62 69 0.0 1.0 0.01 0.01 0.01 98 1013.8
20260905115603 61 347 1.0 2.0 0.01 0.01 0.01 98 1013.7
20260905115103 61 4 1.0 3.0 0.01 0.01 0.01 99 1013.7
20260905113603 59 336 1.0 1.0 0.01 0.01 0.01 98 1013.5
20260905113103 59 336 0.0 1.0 0.00 0.00 0.00 98 1013.4
20260905112603 59 336 0.0 0.0 0.00 0.00 0.00 98 1013.3
20260905112103 58 336 0.0 0.0 0.00 0.00 0.00 98 1013.2
20260905111603 58 336 0.0 0.0 0.00 0.00 0.00 98 1013.3
20260905111103 58 336 0.0 1.0 0.00 0.00 0.00 98 1013.2
20260905110603 58 337 0.0 1.0 0.00 0.00 0.00 97 1013.1
20260905105603 58 337 0.0 0.0 0.00 0.00 0.00 97 1013.1
20260905105104 58 337 0.0 0.0 0.00 0.00 0.00 97 1013.1
20260905104603 58 337 0.0 0.0 0.00 0.00 0.00 97 1013.1
20260905104104 58 337 0.0 0.0 0.00 0.00 0.00 97 1013.1
20260905103603 58 337 0.0 0.0 0.00 0.00 0.00 97 1013.1
20260905103103 58 337 0.0 0.0 0.00 0.00 0.00 97 1013.1
20260905102603 58 337 0.0 0.0 0.00 0.00 0.00 97 1013.1
20260905101104 58 337 0.0 0.0 0.00 0.00 0.00 97 1012.9
20260905100604 58 337 0.0 0.0 0.00 0.00 0.00 97 1012.9
20260905100104 59 337 0.0 0.0 0.00 0.00 0.00 97 1013.0
20260905095603 59 337 0.0 0.0 0.00 0.00 0.00 97 1012.9
20260905094603 59 337 0.0 0.0 0.00 0.00 0.00 97 1012.8
20260905094103 59 337 0.0 0.0 0.00 0.00 0.00 97 1012.8
20260905093603 59 337 0.0 0.0 0.00 0.00 0.00 97 1012.9
20260905093103 59 337 0.0 0.0 0.00 0.00 0.00 97 1012.8
20260905092603 59 337 0.0 0.0 0.00 0.00 0.00 97 1012.7
20260905092103 59 337 0.0 0.0 0.00 0.00 0.00 97 1012.7
20260905091103 60 337 0.0 0.0 0.00 0.00 0.00 97 1012.6
20260905090603 60 337 0.0 0.0 0.00 0.00 0.00 97 1012.5
20260905085603 59 337 0.0 0.0 0.00 0.00 0.00 97 1012.5
20260905084604 60 337 0.0 0.0 0.00 0.00 0.00 97 1012.3
20260905083603 60 337 0.0 0.0 0.00 0.00 0.00 96 1012.2
20260905083103 60 337 0.0 0.0 0.00 0.00 0.00 96 1012.2
20260905082604 60 337 0.0 0.0 0.00 0.00 0.00 97 1012.2
20260905082103 60 337 0.0 0.0 0.00 0.00 0.00 96 1012.2
20260905081603 60 337 0.0 0.0 0.00 0.00 0.00 96 1012.2
20260905081103 60 337 0.0 0.0 0.00 0.00 0.00 96 1012.3
20260905080603 60 337 0.0 0.0 0.00 0.00 0.00 96 1012.3
20260905075603 60 337 0.0 0.0 0.00 0.00 0.00 96 1012.4
20260905075104 60 337 0.0 0.0 0.00 0.00 0.00 96 1012.4
20260905074604 60 337 0.0 0.0 0.00 0.00 0.00 96 1012.5
20260905074103 60 337 0.0 0.0 0.00 0.00 0.00 96 1012.5
20260905073603 61 337 0.0 0.0 0.00 0.00 0.00 96 1012.5
20260905073103 61 337 0.0 0.0 0.00 0.00 0.00 96 1012.4
20260905072603 61 337 0.0 0.0 0.00 0.00 0.00 96 1012.4
20260905072103 61 337 0.0 0.0 0.00 0.00 0.00 96 1012.4
20260905071603 61 337 0.0 0.0 0.00 0.00 0.00 96 1012.5
20260905071103 61 337 0.0 0.0 0.00 0.00 0.00 96 1012.5
20260905070603 61 337 0.0 0.0 0.00 0.00 0.00 96 1012.6
20260905065604 62 337 0.0 0.0 0.00 0.00 0.00 96 1012.7
20260905065103 62 337 0.0 0.0 0.00 0.00 0.00 96 1012.7
20260905064103 62 337 0.0 0.0 0.00 0.00 0.00 96 1012.7
20260905063103 62 337 0.0 0.0 0.00 0.00 0.00 95 1012.7
20260905062603 62 337 0.0 0.0 0.00 0.00 0.00 95 1012.7
20260905062103 62 337 0.0 0.0 0.00 0.00 0.00 95 1012.8
20260905060604 62 337 0.0 0.0 0.00 0.00 0.00 95 1012.9
20260905060103 62 337 0.0 1.0 0.00 0.00 0.00 95 1012.9
20260905055103 62 337 0.0 0.0 0.00 0.00 0.00 95 1013.0
20260905054104 63 336 0.0 1.0 0.00 0.00 0.00 95 1012.8
20260905053103 63 330 0.0 2.0 0.00 0.00 0.00 95 1013.0
20260905052603 63 353 0.0 1.0 0.00 0.00 0.00 94 1012.9
20260905051603 63 353 1.0 3.0 0.00 0.00 0.00 94 1013.0
20260905051103 63 355 0.0 3.0 0.00 0.00 0.00 94 1013.0
20260905050603 63 345 1.0 2.0 0.00 0.00 0.00 94 1013.0
20260905050104 63 345 0.0 2.0 0.00 0.00 0.00 94 1013.0
20260905045603 63 334 1.0 3.0 0.00 0.00 0.00 94 1013.0
20260905045103 63 357 0.0 2.0 0.00 0.00 0.00 94 1013.0
20260905044603 64 358 1.0 6.0 0.00 0.00 0.00 94 1012.9
20260905043104 64 349 0.0 0.0 0.00 0.00 0.00 93 1013.0
20260905042603 64 356 0.0 1.0 0.00 0.00 0.00 93 1013.0
20260905042103 64 338 0.0 0.0 0.00 0.00 0.00 93 1013.0
20260905041603 64 338 0.0 0.0 0.00 0.00 0.00 92 1013.1
20260905041104 64 338 0.0 0.0 0.00 0.00 0.00 92 1013.0
20260905040603 64 338 0.0 0.0 0.00 0.00 0.00 92 1013.0
20260905040103 64 338 0.0 1.0 0.00 0.00 0.00 92 1013.0
20260905035104 64 338 0.0 1.0 0.00 0.00 0.00 91 1013.0
20260905034103 65 338 1.0 2.0 0.00 0.00 0.00 90 1013.0
20260905033603 65 338 0.0 1.0 0.00 0.00 0.00 90 1012.9
20260905032604 66 338 0.0 2.0 0.00 0.00 0.00 89 1012.9
20260905032103 66 338 1.0 2.0 0.00 0.00 0.00 88 1012.8
20260905031603 66 338 1.0 2.0 0.00 0.00 0.00 88 1012.8
20260905031103 67 338 1.0 2.0 0.00 0.00 0.00 88 1012.9
20260905030604 67 338 0.0 1.0 0.00 0.00 0.00 88 1012.8
20260905025603 67 338 2.0 5.0 0.00 0.00 0.00 87 1012.8
20260905025104 67 4 0.0 2.0 0.00 0.00 0.00 87 1012.9
20260905024603 68 350 0.0 3.0 0.00 0.00 0.00 87 1012.9
20260905024103 68 13 1.0 2.0 0.00 0.00 0.00 86 1013.0
20260905023604 68 4 1.0 3.0 0.00 0.00 0.00 86 1013.0
20260905023103 68 338 1.0 2.0 0.00 0.00 0.00 85 1013.1
20260905022603 68 343 1.0 3.0 0.00 0.00 0.00 85 1013.0
20260905022104 68 354 2.0 3.0 0.00 0.00 0.00 85 1012.9
20260905021603 69 325 1.0 2.0 0.00 0.00 0.00 84 1012.9
20260905021103 69 349 1.0 2.0 0.00 0.00 0.00 83 1013.0
20260905020103 69 334 1.0 2.0 0.00 0.00 0.00 83 1012.9
20260905015604 69 323 1.0 3.0 0.00 0.00 0.00 83 1013.0
20260905015103 69 337 2.0 3.0 0.00 0.00 0.00 83 1012.9
20260905014604 69 348 2.0 6.0 0.00 0.00 0.00 83 1012.9
20260905013604 69 327 2.0 3.0 0.00 0.00 0.00 82 1013.0
20260905012604 69 335 1.0 3.0 0.00 0.00 0.00 82 1013.0
20260905011604 69 330 1.0 3.0 0.00 0.00 0.00 81 1013.0
20260905010603 70 335 1.0 3.0 0.00 0.00 0.00 81 1013.0
20260905010103 70 343 1.0 7.0 0.00 0.00 0.00 81 1013.1
20260905004603 70 322 1.0 5.0 0.00 0.00 0.00 82 1013.0
20260905004103 70 326 2.0 5.0 0.00 0.00 0.00 82 1013.0